Flag for United Kingdom Weather past 2 weeks in Birmingham, England, United Kingdom

Now
52 °F

Partly sunny.


Feels Like: 48 °F
Forecast: 41 / 49 °F
Wind: 12 mph from Southwest

Location: Birmingham / Airport

Current Time: Feb 28, 2015 at 12:50:38 PM

Latest Report: Feb 28, 2015 at 12:20 PM


Visibility: N/A

Pressure: 29.65 "Hg

Humidity: 77%

Dew point: 45 °F

Location of BirminghamLocation

Historic Weather in Birmingham — Graph

°F

Birmingham temperature yesterday

Maximum temperature yesterday: 46 °F (at 1:20 PM)
Minimum temperature yesterday: 32 °F (at 1:20 AM)
Average temperature yesterday: 40 °F

Past Weeks' High & Low Weather Summary

 TemperatureHumidityPressure
High52 °F (Feb 25, 1:20 PM)100% (Feb 14, 12:20 AM)30.69 "Hg (Feb 14, 12:20 AM)
Low32 °F (Feb 21, 11:20 PM)46% (Feb 17, 1:20 PM)29.12 "Hg (Feb 23, 5:20 PM)
Average42 °F82%29.83 "Hg
* Reported Feb 13 11:20 AM — Feb 28 11:20 AM, Birmingham, Weather by CustomWeather, © 2015

Note: Actual official high and low records may vary slightly from our data, if they occured in-between our weather recording intervals... More about our weather records

Advertising

Birmingham weather history for previous 24 hours

 ConditionsComfort  
Time TempWeatherWind HumidityBarometerVisibility
11:20 AM
Sat, Feb 28
48 °FPartly sunny.10 mph94%29.68 "HgN/A
10:50 AM48 °FPartly sunny.9 mph94%29.68 "HgN/A
10:20 AM46 °FLow clouds.8 mph93%29.71 "HgN/A
9:50 AM46 °FLow clouds.8 mph93%29.74 "HgN/A
9:20 AM45 °FLow clouds.7 mph100%29.74 "HgN/A
8:50 AM45 °FDrizzle. Low clouds.7 mph100%29.74 "Hg4 mi
8:20 AM45 °FDrizzle. Mostly cloudy.7 mph93%29.74 "Hg2 mi
7:50 AM45 °FDrizzle. Mostly cloudy.8 mph93%29.77 "Hg1 mi
7:20 AM45 °FDrizzle. Fog.8 mph93%29.77 "Hg3 mi
6:50 AM45 °FLow clouds.12 mph87%29.74 "HgN/A
6:20 AM45 °FOvercast.8 mph87%29.77 "HgN/A
5:50 AM45 °FOvercast.10 mph87%29.77 "HgN/A
5:20 AM43 °FOvercast.8 mph93%29.77 "HgN/A
4:50 AM43 °FLow clouds.12 mph93%29.77 "HgN/A
4:20 AM43 °FLow clouds.10 mph93%29.80 "HgN/A
3:50 AM43 °FOvercast.10 mph87%29.83 "HgN/A
3:20 AM43 °FOvercast.9 mph87%29.86 "HgN/A
2:50 AM43 °FMostly cloudy.9 mph81%29.86 "HgN/A
2:20 AM41 °FMostly cloudy.9 mph87%29.89 "HgN/A
1:50 AM41 °FOvercast.10 mph87%29.89 "HgN/A
1:20 AM41 °FOvercast.12 mph81%29.89 "HgN/A
12:50 AM41 °FMostly cloudy.10 mph81%29.92 "HgN/A
12:20 AM39 °FPassing clouds.8 mph87%29.92 "HgN/A
11:50 PM
Fri, Feb 27
39 °FClear.8 mph81%29.92 "Hg10 mi
11:20 PM39 °FClear.8 mph81%29.95 "Hg10 mi
10:50 PM39 °FClear.8 mph81%29.95 "Hg10 mi
10:20 PM39 °FClear.8 mph81%29.98 "Hg10 mi
9:50 PM41 °FClear.8 mph76%29.98 "Hg10 mi
9:20 PM41 °FPassing clouds.8 mph76%30.01 "HgN/A
8:50 PM39 °FClear.7 mph75%30.01 "Hg10 mi
8:20 PM41 °FClear.7 mph70%30.01 "Hg10 mi
7:50 PM41 °FPassing clouds.7 mph70%30.01 "HgN/A
7:20 PM43 °FClear.8 mph61%30.04 "Hg10 mi
6:50 PM43 °FPassing clouds.7 mph61%30.04 "HgN/A
6:20 PM43 °FClear.8 mph66%30.04 "Hg10 mi
5:50 PM45 °FPassing clouds.6 mph57%30.04 "HgN/A
5:20 PM45 °FPassing clouds.6 mph57%30.04 "HgN/A
4:50 PM45 °FPassing clouds.7 mph53%30.04 "HgN/A
4:20 PM45 °FPassing clouds.6 mph57%30.07 "HgN/A
3:50 PM46 °FPassing clouds.8 mph53%30.04 "HgN/A
3:20 PM46 °FScattered clouds.8 mph53%30.04 "HgN/A
2:50 PM46 °FPartly sunny.8 mph53%30.07 "HgN/A
2:20 PM46 °FScattered clouds.10 mph53%30.07 "HgN/A
1:50 PM46 °FScattered clouds.10 mph53%30.07 "HgN/A
1:20 PM46 °FScattered clouds.12 mph53%30.09 "HgN/A
12:50 PM45 °FScattered clouds.12 mph61%30.09 "HgN/A
12:20 PM45 °FScattered clouds.12 mph57%30.09 "HgN/A
Weather by CustomWeather, © 2015

See weather overviewHow to use our weather pages